[[{"header":{"parameterUnit":"m.s-1","parameterCategory":1,"la1":30.2991,"la2":30.254,"lo1":-89.0895,"lo2":-89.0444,"dx":0.0017,"dy":0.0017,"nx":28,"ny":28,"refTime":"2022-12-29T09:00:00:Z","depth":0,"parameterNumber":2,"parameterNumberName":"U-component_of_WINDS"},"data":[0,0,0,0,0,0,0,0,0,0,0,0,0,0,0,0,0,0,0,0,0,0,0,0,0,0,0,0,0,0,0,0,0,0,0,0,0,0,0,0,0,0,0,0,0,0,0,0,0,0,0,0,0,0,0,0,0,0,-3.6615,-3.6615,0,-3.6559,-3.6558,-3.6557,-3.6482,-3.6481,-3.6479,-3.6478,-3.6419,-3.6419,-3.6418,0,0,0,0,0,0,0,0,0,0,0,0,0,-3.6658,-3.6657,-3.6615,-3.6615,-3.6614,-3.6559,-3.6558,-3.6557,-3.6482,-3.6481,-3.6479,-3.6478,-3.6419,-3.6419,-3.6418,0,0,0,0,0,0,0,0,0,0,0,0,0,-3.6624,-3.6657,-3.6616,-3.657,-3.6565,-3.6559,-3.6558,-3.6557,-3.6483,-3.6481,-3.6479,-3.6477,-3.6419,-3.6419,-3.6418,-3.6452,0,0,-3.6416,-3.6416,0,0,0,0,0,0,0,0,-3.6626,-3.6622,-3.6577,-3.6573,-3.6568,-3.6526,-3.6551,-3.6522,-3.6483,-3.6514,-3.6478,-3.6476,-3.6456,-3.6452,-3.6446,-3.6449,-3.6446,-3.6416,-3.6416,-3.6416,-3.6415,0,0,0,0,0,0,0,-3.6628,-3.6624,-3.6593,-3.6577,-3.6571,-3.6552,-3.6545,-3.6545,-3.6496,-3.6511,-3.6505,-3.65,-3.6453,-3.6446,-3.6444,-3.6445,-3.6416,-3.6416,-3.6415,-3.6415,-3.6472,-3.6474,0,0,0,0,0,0,-3.6638,-3.6627,-3.6595,-3.6591,-3.6593,-3.6553,-3.6545,-3.6541,-3.6496,-3.6487,-3.6502,-3.6497,-3.6448,-3.6444,-3.6441,-3.6476,-3.6416,-3.6415,-3.6415,-3.647,-3.6472,-3.6474,0,0,0,0,0,0,-3.6639,-3.6636,-3.6597,-3.6608,-3.6601,-3.6554,-3.655,-3.6541,-3.6534,-3.6489,-3.6479,-3.6504,-3.6447,-3.6442,-3.6449,-3.6473,-3.6415,-3.6414,-3.6468,-3.6471,-3.6473,-3.6547,0,0,0,0,0,0,-3.664,-3.6636,-3.6649,-3.6608,-3.6601,-3.6607,-3.6552,-3.6541,-3.6533,-3.6526,-3.6488,-3.648,-3.6445,-3.6451,-3.6449,-3.6471,-3.6414,-3.6465,-3.6469,-3.6472,-3.6542,-3.6552,-3.656,0,0,0,0,0,-3.6642,-3.6672,-3.665,-3.6646,-3.6616,-3.6608,-3.6604,-3.6563,-3.6536,-3.6547,-3.6518,-3.6481,-3.6471,-3.6452,-3.6449,-3.6472,-3.6464,-3.6468,-3.6472,-3.6538,-3.655,-3.656,0,0,0,0,0,0,-3.6716,-3.6666,-3.6641,-3.6658,-3.6638,-3.6595,-3.6609,-3.6577,-3.6564,-3.6558,-3.6507,-3.6499,-3.6512,-3.6493,-3.6473,-3.6501,-3.6462,-3.6466,-3.6513,-3.6524,-3.6533,-3.6536,-3.6413,0,0,0,0,0,-3.6734,-3.6733,-3.6689,-3.6709,-3.67,-3.6657,-3.6652,-3.6622,-3.6599,-3.659,-3.6561,-3.654,-3.6531,-3.6527,-3.6517,-3.6539,-3.6529,-3.6553,-3.6563,-3.657,-3.6573,-3.6582,-3.6592,-3.6488,-3.6488,-3.6488,0,0,-3.6772,-3.6745,-3.6747,-3.6723,-3.6704,-3.6703,-3.665,-3.6651,-3.6649,-3.659,-3.6594,-3.6573,-3.6545,-3.656,-3.6565,-3.6544,-3.66,-3.6576,-3.6582,-3.6581,-3.6588,-3.6597,-3.6606,-3.6491,-3.649,-3.649,0,0,-3.684,-3.682,-3.6833,-3.6815,-3.6787,-3.6758,-3.6761,-3.6724,-3.6707,-3.6711,-3.6666,-3.6663,-3.6651,-3.6632,-3.6622,-3.6683,-3.6648,-3.6681,-3.6728,-3.6737,-3.6745,-3.6752,-3.6772,-3.678,-3.6685,-3.6685,-3.6686,0,-3.689,-3.6887,-3.6844,-3.6848,-3.6838,-3.6785,-3.6798,-3.6782,-3.6753,-3.6747,-3.6724,-3.6706,-3.6684,-3.6693,-3.6708,-3.6702,-3.6703,-3.6684,-3.6748,-3.6754,-3.676,-3.6778,-3.6786,-3.669,-3.6689,-3.6689,-3.6688,0,-3.6949,-3.6948,-3.6962,-3.6934,-3.6927,-3.6935,-3.6893,-3.689,-3.6862,-3.6835,-3.6839,-3.6811,-3.6794,-3.6794,-3.6767,-3.6799,-3.6787,-3.6757,-3.6716,-3.6775,-3.6791,-3.6798,-3.6695,-3.6694,-3.6693,-3.6692,0,0,-3.706,-3.7009,-3.7015,-3.7001,-3.6966,-3.6964,-3.697,-3.6954,-3.6951,-3.6933,-3.6936,-3.6926,-3.6898,-3.6886,-3.6856,-3.6864,-3.6912,-3.6833,-3.6831,-3.6847,-3.6944,-3.6966,-3.6975,-3.689,-3.6891,-3.6892,-3.6946,0,-3.7119,-3.7126,-3.7088,-3.7105,-3.7103,-3.7052,-3.7057,-3.7036,-3.7012,-3.7006,-3.6978,-3.6972,-3.6936,-3.6928,-3.6935,-3.6905,-3.6931,-3.6901,-3.689,-3.689,-3.6896,-3.6983,-3.7006,-3.7058,-3.6952,-3.6953,-3.6954,0,-3.7189,-3.7174,-3.7191,-3.7155,-3.7152,-3.7158,-3.7139,-3.7134,-3.7109,-3.709,-3.7077,-3.7043,-3.7045,-3.7008,-3.7009,-3.699,-3.6984,-3.6969,-3.697,-3.6965,-3.6924,-3.6979,-3.7074,-3.7081,-3.6964,-3.6963,-3.6963,0,-3.7266,-3.7251,-3.7258,-3.7248,-3.7207,-3.7211,-3.7194,-3.7167,-3.716,-3.7144,-3.7138,-3.7122,-3.7113,-3.7102,-3.7063,-3.704,-3.7069,-3.7029,-3.7052,-3.7053,-3.7058,-3.7058,-3.7151,-3.7058,-3.7058,-3.7058,-3.7058,0,-3.7335,-3.7347,-3.7292,-3.7296,-3.7308,-3.7264,-3.7276,-3.7254,-3.7231,-3.7229,-3.7186,-3.7185,-3.7136,-3.713,-3.71,-3.7104,-3.7101,-3.7085,-3.7077,-3.7088,-3.709,-3.7081,-3.7076,-3.706,-3.706,-3.7059,-3.7059,0,-3.7421,-3.7386,-3.739,-3.7351,-3.7341,-3.7351,-3.7317,-3.7319,-3.7292,-3.7291,-3.7288,-3.7246,-3.7236,-3.7197,-3.7178,-3.7158,-3.7172,-3.7157,-3.718,-3.7174,-3.7199,-3.7196,-3.7287,-3.7296,-3.7201,-3.7202,-3.7203,0,-3.7467,-3.7474,-3.7436,-3.7432,-3.7417,-3.7412,-3.7403,-3.7361,-3.7354,-3.7326,-3.7331,-3.7319,-3.7305,-3.7292,-3.7259,-3.7244,-3.7227,-3.726,-3.7224,-3.7235,-3.7225,-3.7224,-3.7223,-3.7267,-3.7268,-3.727,-3.727,0,-3.755,-3.7532,-3.7522,-3.7506,-3.7498,-3.7484,-3.7466,-3.7466,-3.7418,-3.7413,-3.7402,-3.7393,-3.7373,-3.736,-3.734,-3.7321,-3.7287,-3.7282,-3.7286,-3.7296,-3.7309,-3.73,-3.7199,-3.728,-3.7279,-3.7278,-3.7278,-3.7277,-3.7616,-3.762,-3.7593,-3.7583,-3.7566,-3.7551,-3.7551,-3.7524,-3.7515,-3.7496,-3.7472,-3.7464,-3.7438,-3.7407,-3.7392,-3.7384,-3.7366,-3.7372,-3.7373,-3.7375,-3.738,-3.7312,-3.7381,-3.738,-3.738,-3.738,-3.738,0,-3.7695,-3.7675,-3.7667,-3.7644,-3.7637,-3.7607,-3.7587,-3.7582,-3.7576,-3.7555,-3.7543,-3.7531,-3.7518,-3.7485,-3.7468,-3.7469,-3.7453,-3.7466,-3.7464,-3.746,-3.7398,-3.7395,-3.7479,-3.7479,-3.7479,-3.7479,-3.7479,-3.7479,-3.7735,-3.774,-3.7719,-3.7714,-3.7694,-3.7687,-3.7678,-3.7663,-3.7646,-3.7634,-3.7624,-3.7602,-3.7575,-3.7557,-3.7543,-3.7534,-3.7529,-3.7546,-3.7531,-3.7474,-3.7464,-3.7455,-3.7452,-3.7546,-3.7546,-3.7593,-3.7593,-3.7594]},{"header":{"parameterUnit":"m.s-1","parameterCategory":1,"la1":30.2991,"la2":30.254,"lo1":-89.0895,"lo2":-89.0444,"dx":0.0017,"dy":0.0017,"nx":28,"ny":28,"refTime":"2022-12-29T09:00:00:Z","depth":0,"parameterNumber":3,"parameterNumberName":"V-component_of_WINDS"},"data":[0,0,0,0,0,0,0,0,0,0,0,0,0,0,0,0,0,0,0,0,0,0,0,0,0,0,0,0,0,0,0,0,0,0,0,0,0,0,0,0,0,0,0,0,0,0,0,0,0,0,0,0,0,0,0,0,0,0,2.045,2.045,0,2.0439,2.0439,2.0438,2.0381,2.038,2.0379,2.0377,2.0365,2.0366,2.0367,0,0,0,0,0,0,0,0,0,0,0,0,0,2.0423,2.0424,2.045,2.045,2.0449,2.0439,2.0439,2.0438,2.0382,2.038,2.0378,2.0377,2.0365,2.0366,2.0367,0,0,0,0,0,0,0,0,0,0,0,0,0,2.0426,2.0424,2.045,2.042,2.0417,2.0439,2.0439,2.0438,2.0382,2.038,2.0378,2.0376,2.0364,2.0366,2.0367,2.0416,0,0,2.0371,2.0372,0,0,0,0,0,0,0,0,2.0425,2.0427,2.0424,2.0422,2.0419,2.0409,2.0424,2.0431,2.0383,2.0395,2.0377,2.0375,2.0381,2.0381,2.0383,2.0416,2.0415,2.0371,2.0372,2.0373,2.0373,0,0,0,0,0,0,0,2.0425,2.0427,2.0445,2.0424,2.0421,2.0407,2.0406,2.0425,2.04,2.0394,2.039,2.0389,2.0379,2.0382,2.0383,2.0415,2.0371,2.0373,2.0373,2.0374,2.049,2.0492,0,0,0,0,0,0,2.0429,2.0427,2.0446,2.0445,2.0417,2.041,2.0407,2.0414,2.0399,2.0395,2.0391,2.0387,2.0381,2.0381,2.0382,2.0441,2.0373,2.0374,2.0375,2.0488,2.0491,2.0493,0,0,0,0,0,0,2.0429,2.0432,2.0446,2.0435,2.0436,2.0412,2.0421,2.0415,2.0418,2.0397,2.0392,2.0399,2.0379,2.038,2.0409,2.044,2.0375,2.0376,2.0485,2.0489,2.0492,2.0558,0,0,0,0,0,0,2.0428,2.0432,2.045,2.0436,2.0437,2.0473,2.0422,2.0417,2.0421,2.0415,2.0403,2.0399,2.0378,2.0407,2.041,2.0441,2.0377,2.0483,2.0487,2.0491,2.0553,2.0563,2.0572,0,0,0,0,0,2.0428,2.0468,2.0451,2.0453,2.0458,2.0475,2.0475,2.045,2.0423,2.0442,2.0429,2.04,2.0436,2.0411,2.0414,2.0445,2.0481,2.0486,2.0491,2.0549,2.0561,2.0572,0,0,0,0,0,0,2.0484,2.0465,2.0446,2.0483,2.0481,2.0465,2.0487,2.0464,2.0469,2.0463,2.0432,2.043,2.0464,2.0457,2.0429,2.0493,2.0453,2.0459,2.0497,2.0508,2.0518,2.0519,2.0378,0,0,0,0,0,2.0501,2.0516,2.0498,2.0532,2.0533,2.0511,2.0517,2.0498,2.0495,2.0493,2.0482,2.048,2.0491,2.0499,2.0508,2.0552,2.055,2.0575,2.0584,2.0592,2.0598,2.0624,2.0636,2.051,2.051,2.051,0,0,2.0536,2.0527,2.0538,2.0544,2.054,2.0557,2.051,2.0529,2.0542,2.0496,2.0523,2.0516,2.0511,2.0549,2.0565,2.0544,2.0633,2.0599,2.0605,2.0607,2.063,2.0642,2.0653,2.0513,2.0513,2.0512,0,0,2.0608,2.0603,2.0632,2.063,2.0626,2.0611,2.0619,2.0607,2.0601,2.0628,2.0595,2.061,2.0629,2.0628,2.063,2.0707,2.0681,2.071,2.076,2.0786,2.0796,2.0804,2.0834,2.0845,2.0716,2.0716,2.0716,0,2.0652,2.0676,2.065,2.0672,2.0677,2.0638,2.0668,2.0667,2.0666,2.067,2.0647,2.0673,2.0667,2.0706,2.0725,2.0727,2.0736,2.0712,2.0796,2.0805,2.0813,2.0841,2.0852,2.072,2.0719,2.0719,2.0719,0,2.0731,2.0749,2.0773,2.0775,2.0782,2.0808,2.0787,2.0797,2.0779,2.0767,2.0797,2.0789,2.0797,2.0805,2.0786,2.0842,2.0829,2.0802,2.0761,2.0829,2.0855,2.0865,2.0725,2.0724,2.0723,2.0722,0,0,2.0838,2.0827,2.0836,2.0838,2.0833,2.0846,2.0871,2.0881,2.0891,2.0892,2.0914,2.0933,2.0909,2.0912,2.0893,2.0915,2.098,2.0885,2.0885,2.0905,2.1044,2.1066,2.1078,2.0962,2.0964,2.0966,2.1045,0,2.0909,2.0952,2.0931,2.0977,2.0995,2.0959,2.0982,2.0982,2.0972,2.0986,2.0975,2.099,2.0956,2.0958,2.0978,2.0968,2.1007,2.0961,2.0984,2.0985,2.0987,2.1091,2.1114,2.1189,2.1054,2.1056,2.1057,0,2.0997,2.1005,2.1053,2.1048,2.1054,2.1075,2.1084,2.1097,2.1096,2.1088,2.1093,2.107,2.1096,2.1056,2.1092,2.1062,2.1069,2.1066,2.1068,2.107,2.1026,2.1098,2.1212,2.1224,2.1072,2.1071,2.107,0,2.1073,2.1095,2.1128,2.113,2.1123,2.1139,2.1137,2.1135,2.1143,2.115,2.1156,2.1166,2.1172,2.118,2.1161,2.1133,2.1202,2.1159,2.1197,2.1198,2.1213,2.1213,2.1332,2.1216,2.1216,2.1215,2.1215,0,2.1156,2.1187,2.1162,2.1182,2.1218,2.1194,2.1229,2.1223,2.1222,2.1242,2.1211,2.123,2.1203,2.122,2.1205,2.1239,2.1241,2.1236,2.1232,2.124,2.1241,2.1245,2.124,2.1218,2.1218,2.1217,2.1217,0,2.1246,2.123,2.1264,2.1256,2.1255,2.1282,2.1276,2.1295,2.1284,2.1309,2.1314,2.1297,2.1316,2.1298,2.1314,2.1304,2.1351,2.1338,2.1352,2.1349,2.1389,2.1386,2.1516,2.1533,2.1405,2.1406,2.1407,0,2.13,2.1325,2.132,2.1332,2.1332,2.1351,2.136,2.1337,2.1348,2.1351,2.1371,2.1387,2.1399,2.143,2.142,2.1433,2.1422,2.1466,2.1423,2.1432,2.1425,2.1425,2.1428,2.1475,2.1477,2.1478,2.1479,0,2.14,2.1392,2.1406,2.1419,2.1431,2.1439,2.1445,2.1456,2.1434,2.1447,2.1467,2.1476,2.1495,2.1512,2.1523,2.1521,2.1498,2.1493,2.1503,2.1512,2.152,2.1518,2.1378,2.149,2.1489,2.1488,2.1488,2.1487,2.1475,2.1497,2.1498,2.1516,2.1519,2.1526,2.1545,2.1538,2.1554,2.1568,2.1554,2.1578,2.158,2.1592,2.1594,2.1613,2.1594,2.1608,2.1612,2.1616,2.1623,2.1516,2.1615,2.1614,2.1614,2.1614,2.1613,0,2.1575,2.1575,2.1592,2.1603,2.1618,2.1595,2.1601,2.1615,2.1637,2.1641,2.1655,2.1679,2.1696,2.1688,2.1704,2.1721,2.1711,2.1726,2.1725,2.1726,2.1638,2.1629,2.1734,2.1734,2.1734,2.1734,2.1734,2.1734,2.1629,2.1665,2.1657,2.1695,2.1694,2.1719,2.1725,2.1733,2.1736,2.1765,2.178,2.1775,2.1775,2.1791,2.1806,2.1803,2.1812,2.1832,2.1825,2.1743,2.1731,2.172,2.1712,2.1833,2.1833,2.1912,2.1913,2.1913]}]]